Farmington, MO

5:40 PM CST on November 18, 2019 (GMT -0600)
Farmington Regional

Weather History for KFAM - June, 2019

Change the Weather History Date:

Tuesday, June 4, 2019

  Actual Average Record
Temperature  
Mean Temperature 72 °F -  
Max Temperature 84 °F 76 °F 93 °F (2011)
Min Temperature 63 °F 58 °F 48 °F (2013)
Cooling Degree Days 8    
Growing Degree Days 22 (Base 50)    
Moisture  
Dew Point 65 °F    
Average Humidity 81    
Maximum Humidity 100    
Minimum Humidity 67    
Precipitation  
Precipitation 0.82 in - - ()
Sea Level Pressure  
Sea Level Pressure 29.96 in    
Wind  
Wind Speed 7 mph (South)    
Max Wind Speed 15 mph    
Max Gust Speed 23 mph    
Visibility 8 miles    
Events Rain , Thunderstorm    
Averages and records for this station are not official NWS values.
T = Trace of Precipitation, MM = Missing Value Source: NWS Daily Summary

Daily Weather History Graph

Daily Weather History Graph

Search for Another Location

Airport or City:

Astronomy

Jun. 04, 2019 Rise Set
Actual Time 5:40 AM CDT 8:19 PM CDT
Civil Twilight 5:09 AM CDT 8:50 PM CDT
Nautical Twilight 4:31 AM CDT 9:29 PM CDT
Astronomical Twilight 3:48 AM CDT 10:12 PM CDT
Moon 6:49 AM CDT (6/4) 9:48 PM CDT (6/4)
Length of Visible Light 15h 40m
Length of Day
14h 39m
New Moon, 2% of the Moon is Illuminated
Jun 4
New Moon
Jun 10
First Quarter
Jun 17
Full
Jun 25
Last Quarter
Jul 2
New

Hourly Weather History & Observations

Time (CDT) Temp. Heat Index Dew Point Humidity Pressure Visibility Wind Dir Wind Speed Gust Speed Precip Events Conditions
12:56 AM 64.0 °F - 55.0 °F 73% 30.05 in 10.0 mi South 3.5 mph - N/A   Clear
1:56 AM 64.0 °F - 55.0 °F 73% 30.05 in 10.0 mi South 5.8 mph - N/A   Clear
2:56 AM 63.0 °F - 55.0 °F 75% 30.04 in 10.0 mi SSE 4.6 mph - N/A   Mostly Cloudy
3:56 AM 63.0 °F - 55.0 °F 75% 30.02 in 10.0 mi SSE 4.6 mph - N/A   Overcast
4:56 AM 64.0 °F - 53.1 °F 67% 30.03 in 10.0 mi Calm Calm - N/A   Overcast
5:56 AM 64.0 °F - 53.1 °F 67% 30.03 in 10.0 mi SSE 3.5 mph - N/A   Overcast
6:56 AM 64.9 °F - 55.0 °F 70% 30.02 in 10.0 mi SSE 6.9 mph - N/A   Overcast
7:56 AM 66.9 °F - 57.9 °F 73% 30.02 in 10.0 mi South 5.8 mph - N/A   Clear
8:56 AM 70.0 °F - 62.1 °F 76% 30.02 in 10.0 mi SSE 12.7 mph - N/A   Partly Cloudy
9:56 AM 72.0 °F - 64.0 °F 76% 30.01 in 10.0 mi South 9.2 mph - N/A   Overcast
10:56 AM 75.0 °F - 64.9 °F 71% 30.00 in 10.0 mi South 11.5 mph - N/A   Clear
11:56 AM 75.0 °F - 66.9 °F 76% 30.00 in 10.0 mi South 11.5 mph - 0.00 in Rain Light Rain
12:56 PM 75.0 °F - 69.1 °F 82% 29.97 in 10.0 mi South 10.4 mph - 0.00 in Rain Light Rain
1:56 PM 78.1 °F - 70.0 °F 76% 29.96 in 10.0 mi South 11.5 mph - 0.00 in   Scattered Clouds
2:17 PM 80.6 °F 84.6 °F 71.6 °F 74% 29.97 in 10.0 mi South 10.4 mph - N/A   Scattered Clouds
2:24 PM 80.6 °F 84.6 °F 71.6 °F 74% 29.98 in 10.0 mi SSW 8.1 mph - N/A   Mostly Cloudy
2:56 PM 81.0 °F 84.4 °F 70.0 °F 69% 29.94 in 10.0 mi South 15.0 mph - N/A   Mostly Cloudy
3:16 PM 82.4 °F 87.2 °F 71.6 °F 70% 29.96 in 10.0 mi South 12.7 mph - N/A   Scattered Clouds
3:56 PM 82.9 °F 87.5 °F 71.1 °F 67% 29.91 in 10.0 mi South 13.8 mph - N/A   Scattered Clouds
4:43 PM 80.6 °F 83.9 °F 69.8 °F 70% 29.91 in 10.0 mi South 11.5 mph - N/A   Partly Cloudy
4:56 PM 81.0 °F 84.9 °F 71.1 °F 72% 29.88 in 10.0 mi South 8.1 mph - N/A   Clear
5:56 PM 80.1 °F 83.6 °F 71.1 °F 74% 29.88 in 10.0 mi South 6.9 mph - N/A   Partly Cloudy
6:56 PM 78.1 °F - 71.1 °F 79% 29.89 in 10.0 mi SW 6.9 mph - N/A   Mostly Cloudy
7:08 PM 78.8 °F - 71.6 °F 78% 29.91 in 4.0 mi SSW 9.2 mph - N/A Thunderstorm Haze
7:35 PM 66.2 °F - 64.4 °F 94% 29.96 in 6.0 mi WNW 9.2 mph 18.4 mph 0.11 in Rain , Thunderstorm Thunderstorms and Rain
7:39 PM 66.2 °F - 64.4 °F 94% 29.96 in 4.0 mi NW 8.1 mph 23.0 mph 0.16 in Rain , Thunderstorm Heavy Thunderstorms and Rain
7:48 PM 66.2 °F - 64.4 °F 94% 29.96 in 1.8 mi Variable 5.8 mph 17.3 mph 0.30 in Rain , Thunderstorm Heavy Thunderstorms and Rain
7:56 PM 66.9 °F - 64.9 °F 93% 29.93 in 1.5 mi WNW 4.6 mph - 0.42 in Rain , Thunderstorm Heavy Thunderstorms and Rain
8:00 PM 66.2 °F - 66.2 °F 100% 29.94 in 3.0 mi Variable 3.5 mph - 0.02 in Rain , Thunderstorm Thunderstorms and Rain
8:43 PM 66.2 °F - 66.2 °F 100% 29.95 in 7.0 mi Calm Calm - 0.14 in Rain Rain
8:56 PM 66.9 °F - 66.0 °F 97% 29.91 in 5.0 mi Calm Calm - 0.17 in Rain Rain
9:15 PM 66.2 °F - 66.2 °F 100% 29.93 in 5.0 mi Calm Calm - 0.04 in Rain , Thunderstorm Rain
9:49 PM 66.2 °F - 66.2 °F 100% 29.94 in 10.0 mi South 6.9 mph - 0.11 in Rain , Thunderstorm Rain
9:56 PM 66.9 °F - 66.9 °F 100% 29.91 in 10.0 mi SSE 6.9 mph - 0.14 in Rain Rain
10:56 PM 66.9 °F - 66.9 °F 100% 29.88 in 10.0 mi SE 8.1 mph - 0.09 in Rain Light Rain
11:56 PM 66.9 °F - 66.0 °F 97% 29.90 in 10.0 mi South 3.5 mph - 0.00 in   Overcast